Stündliche Wetter Holnino

Heute, 15 Juni, Dienstag

Zeit Temperatur Niederschläge Wind Luftdruck Luftfeuchtigkeit
00:00 +13°C° 0 mm 0 m/S 742 mmHg 90%
01:00 +13°C° 0 mm 0 m/S 742 mmHg 91%
02:00 +12°C° 0 mm 0 m/S 742 mmHg 93%
03:00 +13°C° 0 mm 0 m/S 742 mmHg 90%
04:00 +14°C° 0 mm 0 m/S 742 mmHg 88%
05:00 +15°C° 0 mm 0 m/S 742 mmHg 85%
06:00 +18°C° 0 mm 1 m/S 742 mmHg 78%
07:00 +20°C° 0 mm 1 m/S 742 mmHg 71%
08:00 +21°C° 0 mm 2 m/S 741 mmHg 63%
09:00 +23°C° 0 mm 2 m/S 741 mmHg 59%
10:00 +24°C° 0 mm 2 m/S 741 mmHg 55%
11:00 +25°C° 0 mm 3 m/S 741 mmHg 51%
12:00 +25°C° 0 mm 3 m/S 740 mmHg 51%
13:00 +25°C° 0 mm 3 m/S 740 mmHg 52%
14:00 +25°C° 0 mm 3 m/S 740 mmHg 52%
15:00 +24°C° 0 mm 3 m/S 740 mmHg 55%
16:00 +24°C° 0 mm 3 m/S 739 mmHg 57%
17:00 +23°C° 0 mm 2 m/S 739 mmHg 59%
18:00 +21°C° 0 mm 2 m/S 739 mmHg 65%
19:00 +19°C° 0 mm 2 m/S 739 mmHg 72%
20:00 +18°C° 0 mm 2 m/S 739 mmHg 78%
21:00 +17°C° 0 mm 2 m/S 739 mmHg 80%
22:00 +16°C° 0 mm 2 m/S 739 mmHg 82%
23:00 +15°C° 0 mm 2 m/S 739 mmHg 83%

Morgen, 16 Juni, Mittwoch

Zeit Temperatur Niederschläge Wind Luftdruck Luftfeuchtigkeit
00:00 +15°C° 0 mm 2 m/S 740 mmHg 86%
01:00 +15°C° 0 mm 2 m/S 740 mmHg 88%
02:00 +15°C° 0 mm 2 m/S 740 mmHg 91%
03:00 +15°C° 0 mm 2 m/S 740 mmHg 90%
04:00 +15°C° 0 mm 2 m/S 741 mmHg 88%
05:00 +15°C° 0 mm 2 m/S 741 mmHg 87%
06:00 +16°C° 0 mm 2 m/S 741 mmHg 75%
07:00 +18°C° 0 mm 3 m/S 742 mmHg 63%
08:00 +19°C° 0 mm 3 m/S 742 mmHg 51%
09:00 +20°C° 0 mm 3 m/S 743 mmHg 47%
10:00 +21°C° 0 mm 3 m/S 743 mmHg 42%
11:00 +22°C° 0 mm 3 m/S 743 mmHg 38%
12:00 +22°C° 0 mm 3 m/S 743 mmHg 36%
13:00 +24°C° 0 mm 3 m/S 743 mmHg 34%
14:00 +24°C° 0 mm 3 m/S 743 mmHg 32%
15:00 +24°C° 0 mm 3 m/S 744 mmHg 35%
16:00 +22°C° 0 mm 3 m/S 744 mmHg 37%
17:00 +22°C° 0 mm 3 m/S 744 mmHg 40%
18:00 +20°C° 0 mm 2 m/S 744 mmHg 49%
19:00 +18°C° 0 mm 2 m/S 745 mmHg 58%
20:00 +16°C° 0 mm 2 m/S 745 mmHg 67%
21:00 +14°C° 0 mm 2 m/S 746 mmHg 69%
22:00 +13°C° 0 mm 1 m/S 746 mmHg 71%
23:00 +12°C° 0 mm 1 m/S 746 mmHg 73%

übermorgen, 17 Juni, Donnerstag

Zeit Temperatur Niederschläge Wind Luftdruck Luftfeuchtigkeit
00:00 +12°C° 0 mm 1 m/S 747 mmHg 75%
01:00 +11°C° 0 mm 1 m/S 747 mmHg 76%
02:00 +10°C° 0 mm 0 m/S 748 mmHg 78%
03:00 +11°C° 0 mm 0 m/S 748 mmHg 76%
04:00 +12°C° 0 mm 0 m/S 748 mmHg 74%
05:00 +13°C° 0 mm 0 m/S 748 mmHg 72%
06:00 +16°C° 0 mm 1 m/S 749 mmHg 64%
07:00 +19°C° 0 mm 1 m/S 749 mmHg 56%
08:00 +21°C° 0 mm 1 m/S 749 mmHg 48%
09:00 +22°C° 0 mm 1 m/S 749 mmHg 44%
10:00 +23°C° 0 mm 1 m/S 749 mmHg 40%
11:00 +25°C° 0 mm 1 m/S 749 mmHg 36%
12:00 +25°C° 0 mm 1 m/S 749 mmHg 35%
13:00 +26°C° 0 mm 1 m/S 749 mmHg 35%
14:00 +26°C° 0 mm 1 m/S 749 mmHg 34%
15:00 +26°C° 0 mm 1 m/S 749 mmHg 37%
16:00 +26°C° 0 mm 1 m/S 749 mmHg 40%
17:00 +26°C° 0 mm 1 m/S 749 mmHg 44%
18:00 +24°C° 0 mm 1 m/S 749 mmHg 53%
19:00 +21°C° 0 mm 1 m/S 749 mmHg 62%
20:00 +19°C° 0 mm 1 m/S 749 mmHg 71%
21:00 +16°C° 0 mm 0 m/S 749 mmHg 73%
22:00 +15°C° 0 mm 0 m/S 750 mmHg 75%
23:00 +14°C° 0 mm 0 m/S 750 mmHg 78%

18 Juni, Freitag

Zeit Temperatur Niederschläge Wind Luftdruck Luftfeuchtigkeit
00:00 +14°C° 0 mm 0 m/S 750 mmHg 79%
01:00 +14°C° 0 mm 1 m/S 750 mmHg 81%
02:00 +14°C° 0 mm 1 m/S 750 mmHg 82%
03:00 +15°C° 0 mm 1 m/S 750 mmHg 80%
04:00 +16°C° 0 mm 1 m/S 751 mmHg 78%
05:00 +16°C° 0 mm 1 m/S 751 mmHg 76%
06:00 +19°C° 0 mm 1 m/S 751 mmHg 69%
07:00 +21°C° 0 mm 1 m/S 751 mmHg 61%
08:00 +24°C° 0 mm 1 m/S 751 mmHg 53%
09:00 +25°C° 0 mm 2 m/S 751 mmHg 49%
10:00 +26°C° 0 mm 2 m/S 751 mmHg 44%
11:00 +27°C° 0 mm 2 m/S 750 mmHg 40%
12:00 +28°C° 0 mm 2 m/S 750 mmHg 39%
13:00 +28°C° 0 mm 3 m/S 750 mmHg 39%
14:00 +29°C° 0 mm 3 m/S 750 mmHg 38%
15:00 +29°C° 0 mm 3 m/S 750 mmHg 41%
16:00 +28°C° 0 mm 3 m/S 749 mmHg 45%
17:00 +28°C° 0 mm 3 m/S 749 mmHg 48%
18:00 +26°C° 0 mm 2 m/S 749 mmHg 58%
19:00 +24°C° 0 mm 2 m/S 749 mmHg 68%
20:00 +20°C° 0 mm 2 m/S 749 mmHg 77%
21:00 +19°C° 0 mm 2 m/S 749 mmHg 80%
22:00 +18°C° 0 mm 2 m/S 749 mmHg 83%
23:00 +17°C° 0 mm 2 m/S 750 mmHg 86%

19 Juni, Samstag

Zeit Temperatur Niederschläge Wind Luftdruck Luftfeuchtigkeit
00:00 +17°C° 0 mm 2 m/S 750 mmHg 89%
01:00 +16°C° 0 mm 2 m/S 750 mmHg 91%
02:00 +16°C° 0 mm 2 m/S 750 mmHg 94%
03:00 +16°C° 0 mm 2 m/S 750 mmHg 91%
04:00 +17°C° 0 mm 2 m/S 750 mmHg 88%
05:00 +17°C° 0 mm 2 m/S 750 mmHg 85%
06:00 +19°C° 0 mm 3 m/S 750 mmHg 76%
07:00 +21°C° 0 mm 3 m/S 750 mmHg 68%
08:00 +24°C° 0 mm 3 m/S 750 mmHg 60%
09:00 +25°C° 0 mm 3 m/S 750 mmHg 55%
10:00 +26°C° 0 mm 3 m/S 750 mmHg 51%
11:00 +28°C° 0 mm 3 m/S 750 mmHg 46%
12:00 +28°C° 0 mm 3 m/S 750 mmHg 44%
13:00 +29°C° 0 mm 3 m/S 750 mmHg 41%
14:00 +29°C° 0 mm 3 m/S 749 mmHg 39%
15:00 +29°C° 0 mm 3 m/S 749 mmHg 42%
16:00 +29°C° 0 mm 2 m/S 749 mmHg 44%
17:00 +29°C° 0 mm 2 m/S 749 mmHg 47%
18:00 +27°C° 0 mm 2 m/S 749 mmHg 56%
19:00 +24°C° 0 mm 2 m/S 749 mmHg 66%
20:00 +21°C° 0 mm 2 m/S 749 mmHg 76%
21:00 +20°C° 0 mm 2 m/S 749 mmHg 80%
22:00 +19°C° 0 mm 2 m/S 749 mmHg 84%
23:00 +18°C° 0 mm 2 m/S 749 mmHg 88%

20 Juni, Sonntag

Zeit Temperatur Niederschläge Wind Luftdruck Luftfeuchtigkeit
00:00 +17°C° 0 mm 2 m/S 749 mmHg 90%
01:00 +17°C° 0 mm 2 m/S 749 mmHg 92%
02:00 +16°C° 0 mm 2 m/S 749 mmHg 93%
03:00 +18°C° 0 mm 1 m/S 750 mmHg 91%
04:00 +19°C° 0 mm 1 m/S 750 mmHg 89%
05:00 +19°C° 0 mm 1 m/S 750 mmHg 87%
06:00 +20°C° 0 mm 2 m/S 749 mmHg 78%
07:00 +23°C° 0 mm 2 m/S 749 mmHg 69%
08:00 +25°C° 0 mm 2 m/S 749 mmHg 61%
09:00 +26°C° 0 mm 3 m/S 749 mmHg 55%
10:00 +27°C° 0 mm 3 m/S 749 mmHg 50%
11:00 +28°C° 0 mm 3 m/S 749 mmHg 45%
12:00 +29°C° 0 mm 3 m/S 748 mmHg 44%
13:00 +29°C° 0 mm 3 m/S 748 mmHg 42%
14:00 +30°C° 0 mm 4 m/S 748 mmHg 40%
15:00 +29°C° 0 mm 3 m/S 748 mmHg 43%
16:00 +29°C° 0 mm 3 m/S 747 mmHg 45%
17:00 +29°C° 0 mm 2 m/S 747 mmHg 48%
18:00 +27°C° 0 mm 2 m/S 747 mmHg 58%
19:00 +25°C° 0 mm 2 m/S 747 mmHg 67%
20:00 +21°C° 0 mm 2 m/S 747 mmHg 77%
21:00 +20°C° 0 mm 2 m/S 747 mmHg 80%
22:00 +19°C° 0 mm 2 m/S 747 mmHg 82%
23:00 +18°C° 0 mm 2 m/S 747 mmHg 85%
Mehr zeigen

Wir brauchen deine Erlaubnis

Meteoprog und unser Service Anbieter werden persönliche Daten aufbewahren, so wie Cookies, Geräte Bezeichnung oder ähnliche Technologien von deinem Gerät und Prozess, so wie Persönliche Daten Inhalte und Werbungen, genauso wie social Media und den Verkehr zu analysieren.

  • Aufbewahrung und/oder Zugang zu deiner Geräte Informationen.

    Cookies, Geräte Bezeichnung oder andere Informationen, können aufbewahrt oder Zugang zu deinem Gerät erhalten, für den Grund, der oben angegeben wird.

  • Personalisierte Werbung und Inhalte, Messungen, Einblick in das Publikum und Produkt Entwicklung.

    Werbungen und Inhalte können personalisiert werden, basierend auf ein Profil. Mehr Daten können besser personalisierte Werbungen und Inhalte hinzufügen. Werbung und Inhalte können gezeigt und gemessen werden. Einblicke über das Publikum, welche die Werbung gesehen haben und den Inhalt, können abgeleitet werden. So wie Daten können genutzt werden, um es zu verbessern oder die Benutzer Erfahrung zu verbessern das System und die Software.

Wenn du “Ich stimme zu” klickst, erlaubst du uns, die Cookies zu benutzen die Geräte Bezeichnung, den Web oder ähnliche Technologien zu benutzen. Deine Settings, können in deinem Gerät bei deinem Browser geändert werden.

Für den bestimmten Zweck, berechtigten Interessen beruhen darauf, mehr als auf den Inhalt. Du kannst mehr darüber in unseren Privaten und Cookie Politik lesen.